Overview Statistics Trail Chart Weather Telemetry Raw packets
 

This is the latest recevied weather packets stored in our database for station/object XE2B-20. If no packets are shown the sender has not sent any weather packets the latest 10 day(s).

<< 16 17 18 19 20 21 22 >>
Time Temp. Humidity Pressure Rain* Wind** Luminosity Snow
1788018098 30° C 30% 810.8 hPa - - - -
1788016607 27.78° C 32% 810.7 hPa - - - -
1788015103 25.56° C 34% 810.7 hPa - - - -
1788013605 25° C 34% 810.7 hPa - - - -
1788012114 22.78° C 35% 810.7 hPa - - - -
1788010604 20° C 37% 810.6 hPa - - - -
1788009099 14.44° C 45% 810.5 hPa - - - -
1788007601 13.33° C 46% 810.3 hPa - - - -
1788006102 12.78° C 46% 810 hPa - - - -
1788004610 12.78° C 46% 809.8 hPa - - - -
1788003105 13.33° C 45% 809.5 hPa - - - -
1788001605 13.33° C 45% 809.3 hPa - - - -
1788000107 13.89° C 44% 809.4 hPa - - - -
1787998616 13.89° C 44% 809.6 hPa - - - -
1787997113 14.44° C 43% 809.7 hPa - - - -
1787995614 14.44° C 42% 809.5 hPa - - - -
1787994114 15° C 42% 809.7 hPa - - - -
1787992613 15° C 41% 809.8 hPa - - - -
1787991114 15° C 41% 809.9 hPa - - - -
1787989616 15° C 41% 810.2 hPa - - - -
1787988125 15.56° C 40% 810.3 hPa - - - -
1787986626 15.56° C 40% 810.3 hPa - - - -
1787985120 16.67° C 39% 810.1 hPa - - - -
1787983622 17.22° C 38% 810.1 hPa - - - -
1787982124 17.78° C 38% 810 hPa - - - -

* Rain since midnight (hover to see other rain measurements)
** Current wind speed in m/s (hover to see current wind gust speed)